User: anonymous   Login
Location: Caltech
(34.1382°N, 118.1253°W)
Time: 07:16:09
(UTC-07:00)
Language:

Cosmos 1937 Rocket - Orbit

View from above orbital plane
View from above orbital plane
View from above satellite
View from above satellite

Ground track
Ground track

The orbit data is extracted from the following two-line orbital elements,

1 19039U 88029B   16147.88201586  .00000025  00000-0  16743-4 0  9998
2 19039  74.0480 290.7712 0024048 201.9030 272.0433 14.38312273475313
Epoch (UTC): 26 May 2016 21:10:06
Eccentricity: 0.0024048
inclination: 74.0480°
perigee height: 747 km
apogee height: 781 km
right ascension of ascending node: 290.7712°
argument of perigee: 201.9030°
revolutions per day: 14.38312273
mean anomaly at epoch: 272.0433°
orbit number at epoch: 47531

The dashed part of the orbit path shows where the satellite is in the earth's shadow,  

DLR